| time (UTC) | temp F | wind direction | speed knots | gust knots | rain 1hr in | rain 24hr in | rain mn in | humidity % | barometer mb |
| 20260507005900 | 78 | 95 | 7.8 | 10.4 | 0.00 | 0.00 | 0.00 | 94 | 1009.7 |
| 20260507005220 | 78 | 88 | 6.1 | 8.7 | 0.00 | 0.00 | 0.00 | 94 | 1009.3 |
| 20260507004540 | 78 | 87 | 7.0 | 8.7 | 0.00 | 0.00 | 0.00 | 94 | 1009.3 |
| 20260507003902 | 78 | 85 | 6.1 | 10.4 | 0.00 | 0.00 | 0.00 | 94 | 1009.3 |
| 20260507003220 | 78 | 92 | 7.8 | 10.4 | 0.00 | 0.00 | 0.00 | 94 | 1009.3 |
| 20260507002750 | 78 | 78 | 6.1 | 10.4 | 0.00 | 0.00 | 0.00 | 94 | 1009.3 |
| 20260507001901 | 78 | 90 | 6.1 | 10.4 | 0.00 | 0.00 | 0.00 | 93 | 1009.3 |
| 20260507001431 | 78 | 97 | 6.1 | 9.6 | 0.00 | 0.00 | 0.00 | 93 | 1009.3 |
| 20260507000540 | 78 | 87 | 7.0 | 9.6 | 0.00 | 0.00 | 0.00 | 93 | 1009.3 |
| 20260506235900 | 78 | 73 | 6.1 | 8.7 | 0.00 | 0.00 | 0.00 | 94 | 1009.3 |
| 20260506235433 | 78 | 76 | 5.2 | 9.6 | 0.00 | 0.00 | 0.00 | 94 | 1009.3 |
| 20260506234540 | 78 | 81 | 6.1 | 9.6 | 0.00 | 0.00 | 0.00 | 93 | 1009.3 |
| 20260506233900 | 79 | 86 | 6.1 | 8.7 | 0.00 | 0.00 | 0.00 | 92 | 1009.3 |
| 20260506233221 | 79 | 96 | 5.2 | 8.7 | 0.00 | 0.00 | 0.00 | 91 | 1009.3 |
| 20260506232750 | 79 | 91 | 6.1 | 9.6 | 0.00 | 0.00 | 0.00 | 90 | 1009.3 |
| 20260506231900 | 79 | 105 | 7.0 | 9.6 | 0.00 | 0.00 | 0.00 | 90 | 1009.0 |
| 20260506231220 | 80 | 99 | 5.2 | 7.8 | 0.00 | 0.00 | 0.00 | 89 | 1008.6 |
| 20260506230540 | 80 | 99 | 6.1 | 7.0 | 0.00 | 0.00 | 0.00 | 89 | 1008.6 |
| 20260506225900 | 79 | 64 | 4.3 | 7.0 | 0.00 | 0.00 | 0.00 | 90 | 1008.6 |
| 20260506225221 | 79 | 85 | 4.3 | 7.0 | 0.00 | 0.00 | 0.00 | 89 | 1009.0 |
| 20260506224540 | 79 | 101 | 5.2 | 7.8 | 0.00 | 0.00 | 0.00 | 90 | 1008.6 |
| 20260506223900 | 80 | 80 | 4.3 | 9.6 | 0.00 | 0.00 | 0.00 | 88 | 1008.6 |
| 20260506223220 | 80 | 113 | 7.8 | 11.3 | 0.00 | 0.00 | 0.00 | 87 | 1008.6 |
| 20260506222540 | 80 | 123 | 8.7 | 11.3 | 0.00 | 0.00 | 0.00 | 86 | 1008.6 |
| 20260506221900 | 80 | 108 | 7.8 | 9.6 | 0.00 | 0.00 | 0.00 | 87 | 1008.6 |
| 20260506221220 | 80 | 113 | 7.8 | 10.4 | 0.00 | 0.00 | 0.00 | 87 | 1008.6 |
| 20260506220540 | 79 | 115 | 8.7 | 11.3 | 0.00 | 0.00 | 0.00 | 88 | 1008.6 |
| 20260506215900 | 79 | 110 | 8.7 | 11.3 | 0.00 | 0.00 | 0.00 | 88 | 1008.6 |
| 20260506215220 | 79 | 112 | 10.4 | 11.3 | 0.00 | 0.00 | 0.00 | 88 | 1009.0 |
| 20260506214540 | 79 | 116 | 9.6 | 11.3 | 0.00 | 0.00 | 0.00 | 88 | 1009.0 |
| 20260506213900 | 79 | 113 | 7.8 | 12.2 | 0.00 | 0.00 | 0.00 | 89 | 1009.0 |
| 20260506213220 | 79 | 124 | 10.4 | 12.2 | 0.00 | 0.00 | 0.00 | 88 | 1009.0 |
| 20260506212540 | 79 | 100 | 6.1 | 8.7 | 0.00 | 0.00 | 0.00 | 90 | 1009.3 |
| 20260506211900 | 79 | 107 | 7.0 | 13.9 | 0.00 | 0.00 | 0.00 | 87 | 1009.3 |
| 20260506211220 | 79 | 112 | 11.3 | 13.9 | 0.00 | 0.00 | 0.00 | 90 | 1009.3 |
| 20260506210754 | 79 | 116 | 10.4 | 17.4 | 0.00 | 0.00 | 0.00 | 91 | 1009.3 |
| 20260506205900 | 79 | 111 | 12.2 | 17.4 | 0.00 | 0.00 | 0.00 | 90 | 1009.3 |
| 20260506205220 | 79 | 117 | 12.2 | 14.8 | 0.00 | 0.00 | 0.00 | 90 | 1009.3 |
| 20260506204540 | 79 | 115 | 10.4 | 15.6 | 0.00 | 0.00 | 0.00 | 89 | 1009.3 |
| 20260506203900 | 79 | 106 | 13.0 | 15.6 | 0.00 | 0.00 | 0.00 | 89 | 1009.3 |
| 20260506203221 | 79 | 116 | 10.4 | 15.6 | 0.00 | 0.00 | 0.00 | 89 | 1009.3 |
| 20260506202752 | 79 | 115 | 12.2 | 15.6 | 0.00 | 0.00 | 0.00 | 89 | 1009.0 |
| 20260506201900 | 79 | 114 | 11.3 | 14.8 | 0.00 | 0.00 | 0.00 | 90 | 1009.3 |
| 20260506201222 | 79 | 116 | 12.2 | 14.8 | 0.00 | 0.00 | 0.00 | 91 | 1009.3 |
| 20260506200540 | 79 | 117 | 12.2 | 15.6 | 0.00 | 0.00 | 0.00 | 91 | 1009.7 |
| 20260506195902 | 79 | 115 | 10.4 | 13.9 | 0.00 | 0.00 | 0.00 | 90 | 1009.7 |
| 20260506195220 | 79 | 112 | 10.4 | 12.2 | 0.00 | 0.00 | 0.00 | 90 | 1009.7 |
| 20260506194751 | 79 | 113 | 9.6 | 13.0 | 0.00 | 0.00 | 0.00 | 90 | 1009.7 |
| 20260506193900 | 79 | 118 | 11.3 | 13.0 | 0.00 | 0.00 | 0.00 | 90 | 1010.0 |
| 20260506193432 | 78 | 112 | 7.8 | 12.2 | 0.00 | 0.00 | 0.00 | 90 | 1010.0 |
| 20260506192753 | 78 | 112 | 10.4 | 12.2 | 0.00 | 0.00 | 0.00 | 90 | 1010.0 |
| 20260506191901 | 79 | 122 | 10.4 | 12.2 | 0.00 | 0.00 | 0.00 | 90 | 1010.3 |
| 20260506191220 | 79 | 132 | 8.7 | 13.0 | 0.00 | 0.00 | 0.00 | 89 | 1010.3 |
| 20260506190540 | 79 | 135 | 11.3 | 13.0 | 0.00 | 0.00 | 0.00 | 90 | 1010.3 |
| 20260506185900 | 79 | 127 | 8.7 | 12.2 | 0.00 | 0.00 | 0.00 | 91 | 1010.7 |
| 20260506185222 | 79 | 124 | 9.6 | 12.2 | 0.00 | 0.00 | 0.00 | 91 | 1010.7 |
| 20260506184540 | 78 | 120 | 7.8 | 11.3 | 0.00 | 0.00 | 0.00 | 91 | 1010.7 |
| 20260506183900 | 78 | 122 | 8.7 | 11.3 | 0.00 | 0.00 | 0.00 | 92 | 1010.7 |
| 20260506183220 | 78 | 121 | 7.8 | 9.6 | 0.00 | 0.00 | 0.00 | 92 | 1010.7 |
| 20260506182754 | 78 | 121 | 8.7 | 10.4 | 0.00 | 0.00 | 0.00 | 92 | 1010.7 |
| 20260506181900 | 78 | 117 | 7.8 | 9.6 | 0.00 | 0.00 | 0.00 | 92 | 1010.7 |
| 20260506181220 | 79 | 123 | 6.1 | 8.7 | 0.00 | 0.00 | 0.00 | 92 | 1011.0 |
| 20260506180750 | 79 | 125 | 7.0 | 9.6 | 0.00 | 0.00 | 0.00 | 91 | 1011.0 |
| 20260506175859 | 79 | 122 | 7.0 | 11.3 | 0.00 | 0.00 | 0.00 | 91 | 1011.0 |
| 20260506175219 | 79 | 115 | 8.7 | 11.3 | 0.00 | 0.00 | 0.00 | 90 | 1011.0 |
| 20260506174539 | 79 | 112 | 7.0 | 13.0 | 0.00 | 0.00 | 0.00 | 91 | 1011.0 |
| 20260506173859 | 79 | 115 | 9.6 | 13.0 | 0.00 | 0.00 | 0.00 | 91 | 1011.0 |
| 20260506173219 | 79 | 116 | 9.6 | 13.0 | 0.00 | 0.00 | 0.00 | 90 | 1011.0 |
| 20260506172539 | 79 | 117 | 6.1 | 12.2 | 0.00 | 0.00 | 0.00 | 90 | 1011.0 |
| 20260506171859 | 79 | 120 | 10.4 | 12.2 | 0.00 | 0.00 | 0.00 | 90 | 1010.7 |
| 20260506171219 | 79 | 116 | 8.7 | 12.2 | 0.00 | 0.00 | 0.00 | 89 | 1011.0 |
| 20260506170539 | 79 | 114 | 8.7 | 11.3 | 0.00 | 0.00 | 0.00 | 89 | 1011.0 |
| 20260506165859 | 79 | 119 | 8.7 | 13.0 | 0.00 | 0.00 | 0.00 | 90 | 1011.0 |
| 20260506165219 | 78 | 118 | 10.4 | 13.9 | 0.00 | 0.00 | 0.00 | 91 | 1010.7 |
| 20260506164539 | 78 | 114 | 9.6 | 13.9 | 0.00 | 0.00 | 0.00 | 91 | 1011.0 |
| 20260506164109 | 78 | 120 | 11.3 | 13.9 | 0.00 | 0.00 | 0.00 | 91 | 1011.0 |
| 20260506163219 | 78 | 109 | 9.6 | 14.8 | 0.00 | 0.00 | 0.00 | 91 | 1011.0 |
| 20260506162539 | 78 | 114 | 11.3 | 14.8 | 0.00 | 0.00 | 0.00 | 92 | 1010.7 |
| 20260506161859 | 78 | 112 | 10.4 | 13.9 | 0.00 | 0.00 | 0.00 | 92 | 1010.7 |
| 20260506161219 | 78 | 115 | 11.3 | 13.9 | 0.00 | 0.00 | 0.00 | 93 | 1010.7 |
| 20260506160539 | 78 | 116 | 10.4 | 12.2 | 0.00 | 0.00 | 0.00 | 93 | 1010.3 |
| 20260506155859 | 78 | 121 | 7.8 | 11.3 | 0.00 | 0.00 | 0.00 | 94 | 1010.3 |
| 20260506155219 | 78 | 125 | 9.6 | 13.0 | 0.00 | 0.00 | 0.00 | 94 | 1010.3 |
| 20260506154748 | 78 | 130 | 9.6 | 12.2 | 0.00 | 0.00 | 0.00 | 95 | 1010.3 |
| 20260506154109 | 78 | 120 | 9.6 | 13.0 | 0.00 | 0.00 | 0.00 | 95 | 1010.3 |
| 20260506153430 | 78 | 116 | 10.4 | 16.5 | 0.00 | 0.00 | 0.00 | 94 | 1010.0 |
| 20260506152751 | 78 | 118 | 13.0 | 17.4 | 0.00 | 0.00 | 0.00 | 94 | 1010.3 |
| 20260506151859 | 78 | 118 | 13.9 | 16.5 | 0.00 | 0.00 | 0.00 | 94 | 1010.0 |
| 20260506151219 | 78 | 118 | 10.4 | 15.6 | 0.00 | 0.00 | 0.00 | 94 | 1010.0 |
| 20260506150539 | 78 | 117 | 13.0 | 17.4 | 0.00 | 0.00 | 0.00 | 94 | 1010.0 |
| 20260506145900 | 78 | 117 | 13.0 | 16.5 | 0.00 | 0.00 | 0.00 | 94 | 1010.0 |
| 20260506145434 | 78 | 108 | 12.2 | 16.5 | 0.00 | 0.00 | 0.00 | 94 | 1010.0 |
| 20260506144749 | 78 | 108 | 13.9 | 15.6 | 0.00 | 0.00 | 0.00 | 94 | 1010.0 |
| 20260506143901 | 78 | 115 | 10.4 | 13.0 | 0.00 | 0.00 | 0.00 | 95 | 1010.0 |
| 20260506143220 | 78 | 112 | 10.4 | 13.9 | 0.00 | 0.00 | 0.00 | 95 | 1010.0 |
| 20260506142540 | 78 | 117 | 12.2 | 14.8 | 0.00 | 0.00 | 0.00 | 95 | 1010.0 |
| 20260506141900 | 78 | 114 | 11.3 | 14.8 | 0.00 | 0.00 | 0.00 | 95 | 1010.0 |
| 20260506141220 | 78 | 110 | 11.3 | 15.6 | 0.00 | 0.00 | 0.00 | 94 | 1010.0 |
| 20260506140542 | 78 | 109 | 12.2 | 15.6 | 0.00 | 0.00 | 0.00 | 94 | 1010.0 |
| 20260506135900 | 78 | 108 | 9.6 | 14.8 | 0.00 | 0.00 | 0.00 | 95 | 1009.7 |
| 20260506135220 | 78 | 103 | 9.6 | 13.9 | 0.00 | 0.00 | 0.00 | 95 | 1009.7 |
| 20260506134540 | 78 | 104 | 9.6 | 13.9 | 0.00 | 0.00 | 0.00 | 95 | 1009.7 |
| 20260506133900 | 78 | 111 | 11.3 | 15.6 | 0.00 | 0.00 | 0.00 | 95 | 1009.7 |
| 20260506133220 | 77 | 114 | 10.4 | 14.8 | 0.00 | 0.00 | 0.00 | 95 | 1009.7 |
| 20260506132540 | 78 | 111 | 9.6 | 14.8 | 0.00 | 0.00 | 0.00 | 95 | 1009.7 |
| 20260506131900 | 77 | 117 | 12.2 | 13.9 | 0.00 | 0.00 | 0.00 | 95 | 1009.7 |
| 20260506131220 | 77 | 112 | 8.7 | 11.3 | 0.00 | 0.00 | 0.00 | 96 | 1009.7 |
| 20260506130754 | 77 | 120 | 9.6 | 11.3 | 0.00 | 0.00 | 0.00 | 96 | 1010.0 |
| 20260506130109 | 77 | 121 | 8.7 | 10.4 | 0.00 | 0.00 | 0.00 | 96 | 1010.0 |
| 20260506125430 | 77 | 123 | 7.8 | 12.2 | 0.00 | 0.00 | 0.00 | 96 | 1009.7 |
| 20260506124540 | 77 | 123 | 8.7 | 12.2 | 0.00 | 0.00 | 0.00 | 97 | 1009.7 |
| 20260506124111 | 77 | 117 | 7.8 | 10.4 | 0.00 | 0.00 | 0.00 | 97 | 1009.7 |
| 20260506123432 | 77 | 125 | 7.8 | 10.4 | 0.00 | 0.00 | 0.00 | 97 | 1009.7 |
| 20260506122542 | 77 | 124 | 7.0 | 10.4 | 0.00 | 0.00 | 0.00 | 96 | 1009.7 |
| 20260506122113 | 77 | 126 | 8.7 | 12.2 | 0.00 | 0.00 | 0.00 | 96 | 1009.7 |
| 20260506121434 | 77 | 128 | 7.8 | 13.9 | 0.00 | 0.00 | 0.00 | 96 | 1009.3 |
| 20260506120540 | 77 | 122 | 10.4 | 12.2 | 0.00 | 0.00 | 0.00 | 96 | 1009.3 |
| 20260506115902 | 77 | 125 | 7.8 | 13.9 | 0.00 | 0.00 | 0.00 | 96 | 1009.3 |
| 20260506115221 | 77 | 123 | 10.4 | 13.9 | 0.00 | 0.00 | 0.00 | 96 | 1009.3 |
| 20260506114540 | 77 | 122 | 11.3 | 13.0 | 0.00 | 0.00 | 0.00 | 96 | 1009.0 |
| 20260506113900 | 77 | 123 | 10.4 | 12.2 | 0.00 | 0.00 | 0.00 | 96 | 1009.3 |
| 20260506113222 | 77 | 122 | 9.6 | 12.2 | 0.00 | 0.00 | 0.00 | 96 | 1009.3 |
| 20260506112540 | 77 | 123 | 7.8 | 12.2 | 0.00 | 0.00 | 0.00 | 96 | 1009.3 |
| 20260506112114 | 77 | 123 | 8.7 | 12.2 | 0.00 | 0.00 | 0.00 | 96 | 1009.0 |
| 20260506111429 | 77 | 117 | 9.6 | 13.9 | 0.00 | 0.00 | 0.00 | 96 | 1009.0 |
| 20260506110540 | 77 | 120 | 8.7 | 13.9 | 0.00 | 0.00 | 0.00 | 96 | 1009.0 |
| 20260506105900 | 77 | 121 | 11.3 | 13.9 | 0.00 | 0.00 | 0.00 | 96 | 1009.0 |
| 20260506105431 | 77 | 121 | 8.7 | 13.9 | 0.00 | 0.00 | 0.00 | 96 | 1009.0 |
| 20260506104752 | 77 | 117 | 10.4 | 14.8 | 0.00 | 0.00 | 0.00 | 96 | 1009.0 |
| 20260506103900 | 77 | 123 | 11.3 | 14.8 | 0.00 | 0.00 | 0.00 | 96 | 1009.0 |
| 20260506103220 | 77 | 121 | 9.6 | 11.3 | 0.00 | 0.00 | 0.00 | 96 | 1009.0 |
| 20260506102540 | 77 | 132 | 8.7 | 11.3 | 0.00 | 0.00 | 0.00 | 96 | 1009.0 |
| 20260506101900 | 77 | 127 | 9.6 | 13.0 | 0.00 | 0.00 | 0.00 | 96 | 1009.0 |
| 20260506101220 | 77 | 126 | 8.7 | 13.0 | 0.00 | 0.00 | 0.00 | 96 | 1009.0 |
| 20260506100540 | 77 | 127 | 8.7 | 12.2 | 0.00 | 0.00 | 0.00 | 95 | 1008.6 |
| 20260506095901 | 77 | 121 | 7.0 | 14.8 | 0.00 | 0.00 | 0.00 | 95 | 1008.6 |
| 20260506095220 | 77 | 117 | 11.3 | 14.8 | 0.00 | 0.00 | 0.00 | 96 | 1008.6 |
| 20260506094540 | 77 | 120 | 12.2 | 15.6 | 0.00 | 0.00 | 0.00 | 96 | 1008.6 |
| 20260506094113 | 77 | 117 | 12.2 | 15.6 | 0.00 | 0.00 | 0.00 | 96 | 1008.6 |
| 20260506093220 | 77 | 119 | 12.2 | 14.8 | 0.00 | 0.00 | 0.00 | 96 | 1008.6 |
| 20260506092540 | 77 | 115 | 10.4 | 13.9 | 0.00 | 0.00 | 0.00 | 96 | 1008.6 |
| 20260506091900 | 77 | 117 | 10.4 | 14.8 | 0.00 | 0.00 | 0.00 | 96 | 1008.6 |
| 20260506091220 | 77 | 113 | 10.4 | 14.8 | 0.00 | 0.00 | 0.00 | 96 | 1008.6 |
| 20260506090540 | 77 | 116 | 12.2 | 14.8 | 0.00 | 0.00 | 0.00 | 96 | 1008.6 |
| 20260506085900 | 77 | 118 | 11.3 | 14.8 | 0.00 | 0.00 | 0.00 | 96 | 1008.6 |
| 20260506085220 | 77 | 115 | 12.2 | 14.8 | 0.00 | 0.00 | 0.00 | 96 | 1008.6 |
| 20260506084753 | 77 | 114 | 8.7 | 12.2 | 0.00 | 0.00 | 0.00 | 96 | 1008.6 |
| 20260506083900 | 77 | 119 | 7.8 | 10.4 | 0.00 | 0.00 | 0.00 | 97 | 1009.0 |
| 20260506083220 | 77 | 128 | 7.8 | 11.3 | 0.00 | 0.00 | 0.00 | 97 | 1009.0 |
| 20260506082750 | 77 | 133 | 7.8 | 10.4 | 0.00 | 0.00 | 0.00 | 97 | 1009.0 |
| 20260506081900 | 77 | 129 | 8.7 | 10.4 | 0.00 | 0.00 | 0.00 | 97 | 1009.3 |
| 20260506081220 | 77 | 124 | 7.8 | 10.4 | 0.00 | 0.00 | 0.00 | 97 | 1009.3 |
| 20260506080540 | 77 | 129 | 8.7 | 11.3 | 0.00 | 0.00 | 0.00 | 97 | 1009.0 |
| 20260506073220 | 77 | 136 | 7.0 | 10.4 | 0.00 | 0.00 | 0.00 | 96 | 1009.7 |
| 20260506072750 | 77 | 138 | 6.1 | 10.4 | 0.00 | 0.00 | 0.00 | 96 | 1009.7 |
| 20260506071900 | 77 | 134 | 6.1 | 10.4 | 0.00 | 0.00 | 0.00 | 96 | 1009.7 |
| 20260506071220 | 77 | 138 | 7.0 | 8.7 | 0.00 | 0.00 | 0.00 | 96 | 1009.7 |
| 20260506070540 | 77 | 139 | 6.1 | 11.3 | 0.00 | 0.00 | 0.00 | 96 | 1010.0 |
| 20260506061900 | 77 | 131 | 10.4 | 13.9 | 0.00 | 0.00 | 0.00 | 96 | 1009.7 |
| 20260506061220 | 77 | 127 | 9.6 | 16.5 | 0.00 | 0.00 | 0.00 | 96 | 1009.7 |
| 20260506060540 | 77 | 127 | 11.3 | 16.5 | 0.00 | 0.00 | 0.00 | 96 | 1009.7 |
| 20260506051221 | 77 | 128 | 12.2 | 17.4 | 0.00 | 0.00 | 0.00 | 95 | 1009.3 |
| 20260506050540 | 77 | 124 | 12.2 | 17.4 | 0.00 | 0.00 | 0.00 | 95 | 1009.3 |
| 20260506044540 | 77 | 127 | 13.0 | 20.0 | 0.00 | 0.00 | 0.00 | 95 | 1009.7 |
| 20260506044111 | 77 | 126 | 13.9 | 20.0 | 0.00 | 0.00 | 0.00 | 94 | 1009.7 |
| 20260506043220 | 77 | 128 | 13.9 | 19.1 | 0.00 | 0.00 | 0.00 | 94 | 1009.3 |
| 20260506042540 | 77 | 127 | 13.9 | 17.4 | 0.00 | 0.00 | 0.00 | 94 | 1009.3 |
| 20260506041900 | 77 | 126 | 13.0 | 19.1 | 0.00 | 0.00 | 0.00 | 94 | 1009.7 |
| 20260506041220 | 77 | 126 | 12.2 | 17.4 | 0.00 | 0.00 | 0.00 | 94 | 1009.3 |
| 20260506040540 | 77 | 128 | 13.0 | 19.1 | 0.00 | 0.00 | 0.00 | 94 | 1009.7 |
| 20260506035900 | 77 | 130 | 15.6 | 20.9 | 0.00 | 0.00 | 0.00 | 94 | 1009.7 |
| 20260506035220 | 77 | 128 | 13.0 | 20.9 | 0.00 | 0.00 | 0.00 | 94 | 1009.7 |
| 20260506034751 | 77 | 127 | 12.2 | 19.1 | 0.00 | 0.00 | 0.00 | 94 | 1009.7 |
| 20260506033900 | 77 | 128 | 13.9 | 19.1 | 0.00 | 0.00 | 0.00 | 94 | 1009.3 |
| 20260506033220 | 77 | 127 | 13.0 | 19.1 | 0.00 | 0.00 | 0.00 | 94 | 1009.7 |
| 20260506032540 | 77 | 126 | 13.9 | 18.2 | 0.00 | 0.00 | 0.00 | 94 | 1009.3 |
| 20260506031900 | 77 | 125 | 13.0 | 19.1 | 0.00 | 0.00 | 0.00 | 94 | 1009.3 |
| 20260506031220 | 77 | 127 | 13.0 | 19.1 | 0.00 | 0.00 | 0.00 | 94 | 1009.3 |
| 20260506030540 | 77 | 124 | 13.9 | 19.1 | 0.00 | 0.00 | 0.00 | 94 | 1009.3 |
| 20260506025900 | 77 | 127 | 13.9 | 20.0 | 0.00 | 0.00 | 0.00 | 94 | 1009.3 |
| 20260506025431 | 77 | 129 | 14.8 | 18.2 | 0.00 | 0.00 | 0.00 | 94 | 1009.3 |
| 20260506024540 | 77 | 130 | 14.8 | 18.2 | 0.00 | 0.00 | 0.00 | 94 | 1009.0 |
| 20260506023900 | 77 | 127 | 14.8 | 19.1 | 0.00 | 0.00 | 0.00 | 94 | 1009.0 |
| 20260506023220 | 77 | 130 | 13.9 | 20.9 | 0.00 | 0.00 | 0.00 | 94 | 1009.0 |
| 20260506022540 | 77 | 129 | 15.6 | 19.1 | 0.00 | 0.00 | 0.00 | 94 | 1009.0 |
| 20260506021900 | 77 | 128 | 14.8 | 19.1 | 0.00 | 0.00 | 0.00 | 94 | 1008.6 |
| 20260506021220 | 77 | 129 | 13.9 | 20.9 | 0.00 | 0.00 | 0.00 | 94 | 1008.6 |
| 20260506020540 | 77 | 129 | 15.6 | 20.9 | 0.00 | 0.00 | 0.00 | 94 | 1008.6 |
| 20260506015900 | 77 | 127 | 14.8 | 20.0 | 0.00 | 0.00 | 0.00 | 94 | 1008.6 |
| 20260506015220 | 77 | 129 | 15.6 | 20.0 | 0.00 | 0.00 | 0.00 | 94 | 1008.3 |
| 20260506014540 | 77 | 127 | 13.9 | 20.0 | 0.00 | 0.00 | 0.00 | 94 | 1008.3 |
| 20260506013900 | 77 | 128 | 13.0 | 20.0 | 0.00 | 0.00 | 0.00 | 94 | 1008.3 |
| 20260506013220 | 77 | 123 | 15.6 | 20.0 | 0.00 | 0.00 | 0.00 | 94 | 1008.0 |
| 20260506012540 | 77 | 122 | 13.0 | 18.2 | 0.00 | 0.00 | 0.00 | 94 | 1008.0 |
| 20260506011902 | 77 | 122 | 13.0 | 18.2 | 0.00 | 0.00 | 0.00 | 94 | 1008.0 |
| 20260506011220 | 77 | 122 | 11.3 | 15.6 | 0.00 | 0.00 | 0.00 | 94 | 1008.0 |
| 20260506010540 | 77 | 125 | 10.4 | 17.4 | 0.00 | 0.00 | 0.00 | 93 | 1007.6 |
| 20260506010112 | 77 | 124 | 11.3 | 15.6 | 0.00 | 0.00 | 0.00 | 93 | 1007.6 |